[[{"header":{"parameterUnit":"m.s-1","parameterCategory":1,"la1":30.2992,"la2":30.254,"lo1":-89.0895,"lo2":-89.0443,"dy":0.0025,"dx":0.0025,"nx":19,"ny":19,"refTime":"2026-05-07T21:00:00:Z","depth":0,"parameterNumber":2,"parameterNumberName":"U-component_of_WINDS"},"data":[0,0,0,-4.4401,-4.4405,-4.4574,-4.4574,-4.4817,-4.482,0,0,0,0,0,0,0,0,0,0,0,-4.4367,-4.4369,-4.4401,-4.4406,-4.4574,-4.4574,-4.4817,-4.482,0,0,0,0,0,0,0,0,0,0,0,-4.4366,-4.4368,-4.4371,-4.4406,-4.4574,-4.4574,-4.4816,-4.468,0,0,0,0,0,0,0,0,0,0,-4.4512,-4.4494,-4.4368,-4.4371,-4.4407,-4.4573,-4.4574,-4.4673,-4.4688,-4.4753,0,-4.4812,0,-4.482,-4.4838,-4.4839,0,0,0,-4.4395,-4.4481,-4.4513,-4.4371,-4.4409,-4.4573,-4.4495,-4.4681,-4.4699,-4.4773,-4.4815,-4.4824,-4.4824,-4.4839,-4.4841,-4.5244,-4.5246,0,0,-4.4386,-4.4406,-4.4501,-4.4525,-4.4499,-4.449,-4.45,-4.4691,-4.4739,-4.4816,-4.4829,-4.4828,-4.4841,-4.4843,-4.5242,-4.5245,0,0,0,-4.4366,-4.44,-4.4426,-4.4516,-4.4544,-4.4495,-4.4507,-4.4731,-4.4737,-4.4831,-4.4831,-4.4843,-4.4846,-4.5239,-4.5243,-4.5381,0,0,0,-4.436,-4.4388,-4.4422,-4.4436,-4.4541,-4.4639,-4.4542,-4.4724,-4.4745,-4.483,-4.4843,-4.4849,-4.5236,-4.5241,-4.5372,-4.5444,0,0,0,-4.4351,-4.4387,-4.4416,-4.4437,-4.451,-4.4635,-4.4653,-4.4728,-4.4746,-4.4839,-4.4849,-4.5235,-4.524,-4.5363,-4.543,-4.5558,0,0,0,-4.4347,-4.4537,-4.4419,-4.4631,-4.4509,-4.4719,-4.4651,-4.4807,-4.4904,-4.4844,-4.5237,-4.5242,-4.5361,-4.5422,-4.5549,-4.567,-4.5721,0,0,-4.4598,-4.4568,-4.4691,-4.459,-4.4827,-4.4692,-4.4949,-4.5019,-4.501,-4.5167,-4.5177,-4.5375,-4.5429,-4.5556,-4.6001,-4.6042,0,0,0,-4.4778,-4.4867,-4.4925,-4.5017,-4.5074,-4.513,-4.5158,-4.5184,-4.5316,-4.5094,-4.5454,-4.5486,-4.5559,-4.5616,-4.5651,-4.5714,-4.5269,-4.5268,-4.5268,-4.5164,-4.5141,-4.5344,-4.5343,-4.5433,-4.546,-4.5532,-4.5572,-4.5523,-4.5608,-4.5656,-4.5928,-4.5996,-4.6022,-4.6088,-4.5716,-4.5716,-4.5717,-4.5717,-4.5531,-4.5655,-4.5585,-4.5757,-4.5733,-4.5878,-4.5912,-4.5873,-4.6006,-4.589,-4.5954,-4.5832,-4.6068,-4.6124,-4.5727,-4.5726,-4.5724,-4.5723,-4.5723,-4.5783,-4.5838,-4.5866,-4.5997,-4.6102,-4.6093,-4.6225,-4.6197,-4.6173,-4.6236,-4.6284,-4.6282,-4.6278,-4.626,-4.6261,-4.6262,-4.6263,-4.6264,-4.6264,-4.6034,-4.606,-4.6173,-4.625,-4.6307,-4.6378,-4.6407,-4.6462,-4.6517,-4.6487,-4.6487,-4.6432,-4.6094,-4.6011,-4.6279,-4.6276,-4.6274,-4.6273,-4.6272,-4.6419,-4.6327,-4.6502,-4.6559,-4.6647,-4.6754,-4.6717,-4.6833,-4.6874,-4.6941,-4.6871,-4.6625,-4.6593,-4.6565,-4.6496,-4.6874,-4.6874,-4.6874,-4.6874,-4.6633,-4.6613,-4.6786,-4.6879,-4.6966,-4.6951,-4.7152,-4.7177,-4.7189,-4.7214,-4.7155,-4.7061,-4.7033,-4.7018,-4.698,-4.6916,-4.7391,-4.7392,-4.7392,-4.6869,-4.6857,-4.7032,-4.7041,-4.7109,-4.7169,-4.7357,-4.7468,-4.7463,-4.7413,-4.7234,-4.7212,-4.706,-4.7011,-4.6959,-4.69,-4.6781,0,0]},{"header":{"parameterUnit":"m.s-1","parameterCategory":1,"la1":30.2992,"la2":30.254,"lo1":-89.0895,"lo2":-89.0443,"dy":0.0025,"dx":0.0025,"nx":19,"ny":19,"refTime":"2026-05-07T21:00:00:Z","depth":0,"parameterNumber":3,"parameterNumberName":"V-component_of_WINDS"},"data":[0,0,0,-0.9342,-0.9341,-0.9305,-0.9305,-0.9257,-0.9256,0,0,0,0,0,0,0,0,0,0,0,-0.9353,-0.9353,-0.9342,-0.9341,-0.9305,-0.9305,-0.9257,-0.9256,0,0,0,0,0,0,0,0,0,0,0,-0.9354,-0.9353,-0.9353,-0.9341,-0.9305,-0.9305,-0.9257,-0.9285,0,0,0,0,0,0,0,0,0,0,-0.932,-0.9331,-0.9353,-0.9353,-0.9341,-0.9305,-0.9305,-0.9286,-0.9283,-0.9273,0,-0.9266,0,-0.926,-0.9253,-0.9253,0,0,0,-0.9341,-0.9334,-0.9324,-0.9353,-0.9341,-0.9305,-0.9321,-0.9284,-0.9281,-0.9269,-0.9265,-0.9263,-0.926,-0.9253,-0.9253,-0.92,-0.92,0,0,-0.9343,-0.9347,-0.9326,-0.9322,-0.9329,-0.9322,-0.932,-0.9282,-0.9278,-0.9265,-0.9262,-0.9259,-0.9253,-0.9252,-0.92,-0.92,0,0,0,-0.9349,-0.9348,-0.9339,-0.9324,-0.9317,-0.9321,-0.9319,-0.9279,-0.9276,-0.9262,-0.9258,-0.9252,-0.9252,-0.92,-0.92,-0.9193,0,0,0,-0.935,-0.9352,-0.934,-0.9342,-0.9318,-0.9298,-0.9317,-0.9279,-0.9274,-0.9258,-0.9252,-0.9251,-0.9201,-0.92,-0.9194,-0.9189,0,0,0,-0.9356,-0.9353,-0.9348,-0.9343,-0.9327,-0.9299,-0.9293,-0.9278,-0.9272,-0.9253,-0.9251,-0.9201,-0.92,-0.9195,-0.919,-0.9176,0,0,0,-0.9362,-0.9343,-0.9348,-0.9324,-0.9328,-0.9295,-0.9293,-0.9269,-0.9252,-0.9252,-0.9201,-0.92,-0.9195,-0.9191,-0.9177,-0.9164,-0.916,0,0,-0.934,-0.934,-0.9326,-0.9329,-0.9297,-0.9301,-0.9267,-0.9247,-0.9241,-0.9213,-0.9212,-0.9194,-0.919,-0.9176,-0.9134,-0.913,0,0,0,-0.932,-0.931,-0.93,-0.9284,-0.9269,-0.9254,-0.9239,-0.9231,-0.9208,-0.9228,-0.9185,-0.9183,-0.9174,-0.9168,-0.9165,-0.9156,-0.9198,-0.9198,-0.9198,-0.9294,-0.9287,-0.9262,-0.9251,-0.9235,-0.9219,-0.9205,-0.9192,-0.919,-0.9179,-0.9171,-0.9146,-0.9139,-0.9137,-0.9128,-0.9164,-0.9164,-0.9164,-0.9164,-0.9259,-0.9243,-0.924,-0.9215,-0.9207,-0.9185,-0.9168,-0.9167,-0.9145,-0.9153,-0.9145,-0.9153,-0.9133,-0.9125,-0.9164,-0.9164,-0.9164,-0.9164,-0.9164,-0.9241,-0.9232,-0.9223,-0.9198,-0.9179,-0.9168,-0.9146,-0.914,-0.9134,-0.9126,-0.9116,-0.9116,-0.9114,-0.9122,-0.9122,-0.9122,-0.9122,-0.9122,-0.9121,-0.9225,-0.9215,-0.9198,-0.9179,-0.9167,-0.9151,-0.9133,-0.9121,-0.9105,-0.9102,-0.9102,-0.91,-0.9133,-0.9141,-0.912,-0.912,-0.9121,-0.9121,-0.9121,-0.9191,-0.9197,-0.9172,-0.916,-0.9136,-0.9116,-0.9109,-0.9084,-0.9072,-0.9062,-0.9061,-0.9087,-0.9086,-0.9089,-0.9095,-0.9063,-0.9063,-0.9063,-0.9063,-0.9175,-0.9174,-0.9145,-0.9126,-0.9107,-0.9097,-0.9066,-0.9051,-0.9037,-0.9029,-0.9032,-0.9041,-0.9043,-0.9041,-0.9045,-0.905,-0.9008,-0.9008,-0.9008,-0.9153,-0.915,-0.9125,-0.9112,-0.9093,-0.9075,-0.9045,-0.9022,-0.9007,-0.9005,-0.9022,-0.9024,-0.9038,-0.9043,-0.9041,-0.9047,-0.9058,0,0]}]]